EO-1

Last updated on Mon Nov 27 2017 00:18:50 GMT+0000 (Greenwich Mean Time)

1 26619U 00075A 17330.67286475 -.00000404 00000-0 -67981-4 0 9990 2 26619 97.8244 352.0248 0008901 315.0202 45.0265 14.64415536907316
UTC large
Height (km)
Speed (km/s)
/
Latitude / Longitude
Inclination (degrees)
Orbital Period (minutes)
Azimuth
Elevation
Range (km)
Doppler Factor

Next 0 passes for location: London (51.5072 / 0.1276)

Sorry there are no passes over London.